Volver al catálogo

TITAN 3C TRANSTAGE DEB

ActivoLEO
NORAD 1642·DEBRIS·🇺🇸 United States

Lanzado Oct 15, 1965 desde Cape Canaveral Space Force Station

Loading…

Próximos Pases (próximas 24 horas)

TLE

ActualizadoSource: Space-Track

Época: Sep 14, 2026, 15:05 UTC

1 01642U 65082D   26257.62861843  .00000658  00000-0  70672-4 0  9999
2 01642  32.0946 357.3107 0022791  91.3128 269.0134 14.84634895250880

Sigue TITAN 3C TRANSTAGE DEB en tiempo real con AllMySat

Download on the App Store